| time (UTC) | temp F | wind direction | speed knots | gust knots | rain 1hr in | rain 24hr in | rain mn in | humidity % | barometer mb |
| 20260506044559 | 50 | 294 | 4.3 | 6.1 | 0.00 | 0.00 | 0.00 | 84 | 1009.8 |
| 20260506044039 | 50 | 2 | 1.7 | 6.1 | 0.00 | 0.00 | 0.00 | 84 | 1009.9 |
| 20260506043539 | 50 | 321 | 3.5 | 4.3 | 0.00 | 0.00 | 0.00 | 85 | 1009.9 |
| 20260506043038 | 50 | 347 | 1.7 | 4.3 | 0.00 | 0.00 | 0.00 | 84 | 1009.8 |
| 20260506042539 | 50 | 337 | 3.5 | 6.1 | 0.00 | 0.00 | 0.00 | 84 | 1009.8 |
| 20260506042039 | 50 | 306 | 3.5 | 5.2 | 0.00 | 0.00 | 0.00 | 85 | 1009.9 |
| 20260506041538 | 50 | 341 | 3.5 | 4.3 | 0.00 | 0.00 | 0.00 | 84 | 1009.9 |
| 20260506041039 | 50 | 355 | 2.6 | 6.1 | 0.00 | 0.00 | 0.00 | 83 | 1009.9 |
| 20260506040539 | 50 | 347 | 3.5 | 4.3 | 0.00 | 0.00 | 0.00 | 82 | 1009.9 |
| 20260506040039 | 50 | 5 | 2.6 | 7.0 | 0.00 | 0.00 | 0.00 | 81 | 1009.9 |
| 20260506035600 | 50 | 316 | 2.6 | 4.3 | 0.00 | 0.00 | 0.00 | 81 | 1010.0 |
| 20260506035038 | 50 | 352 | 5.2 | 6.1 | 0.00 | 0.00 | 0.00 | 80 | 1009.9 |
| 20260506034539 | 50 | 25 | 2.6 | 6.1 | 0.00 | 0.00 | 0.00 | 80 | 1009.9 |
| 20260506034039 | 50 | 26 | 6.1 | 8.7 | 0.00 | 0.00 | 0.00 | 80 | 1010.0 |
| 20260506033539 | 50 | 316 | 3.5 | 5.2 | 0.00 | 0.00 | 0.00 | 81 | 1010.0 |
| 20260506033039 | 50 | 294 | 3.5 | 4.3 | 0.00 | 0.00 | 0.00 | 81 | 1010.0 |
| 20260506032538 | 50 | 341 | 2.6 | 3.5 | 0.00 | 0.00 | 0.00 | 82 | 1010.0 |
| 20260506032039 | 50 | 358 | 2.6 | 3.5 | 0.00 | 0.00 | 0.00 | 82 | 1010.0 |
| 20260506031539 | 50 | 319 | 1.7 | 4.3 | 0.00 | 0.00 | 0.00 | 82 | 1010.1 |
| 20260506031039 | 50 | 59 | 2.6 | 5.2 | 0.00 | 0.00 | 0.00 | 82 | 1010.1 |
| 20260506030538 | 50 | 346 | 2.6 | 4.3 | 0.00 | 0.00 | 0.00 | 82 | 1010.2 |
| 20260506030039 | 49 | 12 | 2.6 | 3.5 | 0.00 | 0.00 | 0.00 | 83 | 1010.2 |
| 20260506025539 | 49 | 339 | 1.7 | 4.3 | 0.00 | 0.00 | 0.00 | 83 | 1010.1 |
| 20260506025039 | 49 | 333 | 3.5 | 7.0 | 0.00 | 0.00 | 0.00 | 83 | 1010.3 |
| 20260506024538 | 49 | 315 | 1.7 | 2.6 | 0.00 | 0.00 | 0.00 | 83 | 1010.3 |
| 20260506024058 | 49 | 316 | 0.9 | 5.2 | 0.00 | 0.00 | 0.00 | 83 | 1010.3 |
| 20260506023539 | 49 | 323 | 1.7 | 2.6 | 0.00 | 0.00 | 0.00 | 83 | 1010.3 |
| 20260506023039 | 49 | 343 | 0.9 | 5.2 | 0.00 | 0.00 | 0.00 | 83 | 1010.3 |
| 20260506022539 | 49 | 313 | 0.9 | 2.6 | 0.00 | 0.00 | 0.00 | 83 | 1010.3 |
| 20260506022040 | 49 | 290 | 5.2 | 6.1 | 0.00 | 0.00 | 0.00 | 83 | 1010.4 |
| 20260506021539 | 49 | 318 | 3.5 | 4.3 | 0.00 | 0.00 | 0.00 | 83 | 1010.3 |
| 20260506021039 | 49 | 17 | 4.3 | 7.8 | 0.00 | 0.00 | 0.00 | 83 | 1010.4 |
| 20260506020539 | 49 | 31 | 2.6 | 3.5 | 0.00 | 0.00 | 0.00 | 83 | 1010.4 |
| 20260506020039 | 49 | 7 | 2.6 | 6.1 | 0.00 | 0.00 | 0.00 | 83 | 1010.4 |
| 20260506015539 | 49 | 321 | 1.7 | 6.1 | 0.00 | 0.00 | 0.00 | 83 | 1010.4 |
| 20260506015039 | 49 | 344 | 4.3 | 6.1 | 0.00 | 0.00 | 0.00 | 83 | 1010.5 |
| 20260506014539 | 49 | 304 | 2.6 | 7.8 | 0.00 | 0.00 | 0.00 | 83 | 1010.5 |
| 20260506014039 | 49 | 321 | 1.7 | 4.3 | 0.00 | 0.00 | 0.00 | 83 | 1010.4 |
| 20260506013539 | 49 | 327 | 2.6 | 6.1 | 0.00 | 0.00 | 0.00 | 83 | 1010.4 |
| 20260506013039 | 49 | 314 | 2.6 | 6.1 | 0.00 | 0.00 | 0.00 | 83 | 1010.4 |
| 20260506012539 | 49 | 310 | 1.7 | 4.3 | 0.00 | 0.00 | 0.00 | 83 | 1010.4 |
| 20260506012039 | 49 | 306 | 2.6 | 6.1 | 0.00 | 0.00 | 0.00 | 83 | 1010.5 |
| 20260506011539 | 49 | 332 | 7.0 | 8.7 | 0.00 | 0.00 | 0.00 | 83 | 1010.5 |
| 20260506011039 | 49 | 311 | 2.6 | 5.2 | 0.00 | 0.00 | 0.00 | 83 | 1010.5 |
| 20260506010539 | 49 | 292 | 4.3 | 6.1 | 0.00 | 0.00 | 0.00 | 83 | 1010.5 |
| 20260506010059 | 49 | 336 | 5.2 | 7.0 | 0.00 | 0.00 | 0.00 | 82 | 1010.6 |
| 20260506005559 | 49 | 318 | 5.2 | 6.1 | 0.00 | 0.00 | 0.00 | 82 | 1010.7 |
| 20260506005039 | 49 | 333 | 4.3 | 7.8 | 0.00 | 0.00 | 0.00 | 82 | 1010.7 |
| 20260506004621 | 49 | 339 | 2.6 | 7.8 | 0.00 | 0.00 | 0.00 | 82 | 1010.8 |
| 20260506004039 | 49 | 321 | 4.3 | 7.8 | 0.00 | 0.00 | 0.00 | 82 | 1010.8 |
| 20260506003539 | 49 | 330 | 2.6 | 6.1 | 0.00 | 0.00 | 0.00 | 82 | 1010.8 |
| 20260506003039 | 49 | 296 | 4.3 | 5.2 | 0.00 | 0.00 | 0.00 | 81 | 1010.8 |
| 20260506002539 | 49 | 321 | 4.3 | 5.2 | 0.00 | 0.00 | 0.00 | 81 | 1010.9 |
| 20260506002039 | 49 | 334 | 3.5 | 4.3 | 0.00 | 0.00 | 0.00 | 81 | 1011.0 |
| 20260506001539 | 49 | 36 | 3.5 | 6.1 | 0.00 | 0.00 | 0.00 | 80 | 1011.0 |
| 20260506001039 | 49 | 354 | 3.5 | 3.5 | 0.00 | 0.00 | 0.00 | 80 | 1011.0 |
| 20260506000559 | 49 | 310 | 3.5 | 3.5 | 0.00 | 0.00 | 0.00 | 80 | 1011.0 |
| 20260506000039 | 49 | 326 | 2.6 | 5.2 | 0.00 | 0.00 | 0.00 | 80 | 1011.1 |
| 20260505235539 | 49 | 356 | 1.7 | 4.3 | 0.00 | 0.00 | 0.00 | 80 | 1011.1 |
| 20260505235059 | 49 | 271 | 1.7 | 4.3 | 0.00 | 0.00 | 0.00 | 80 | 1011.1 |
| 20260505234539 | 49 | 25 | 4.3 | 5.2 | 0.00 | 0.00 | 0.00 | 80 | 1011.1 |
| 20260505234039 | 49 | 330 | 2.6 | 5.2 | 0.00 | 0.00 | 0.00 | 80 | 1011.1 |
| 20260505233539 | 48 | 21 | 0.9 | 3.5 | 0.00 | 0.00 | 0.00 | 79 | 1011.2 |
| 20260505233059 | 49 | 21 | 3.5 | 7.0 | 0.00 | 0.00 | 0.00 | 79 | 1011.2 |
| 20260505232539 | 49 | 313 | 2.6 | 3.5 | 0.00 | 0.00 | 0.00 | 78 | 1011.3 |
| 20260505232059 | 49 | 336 | 3.5 | 3.5 | 0.00 | 0.00 | 0.00 | 78 | 1011.3 |
| 20260505231539 | 49 | 283 | 3.5 | 4.3 | 0.00 | 0.00 | 0.00 | 78 | 1011.3 |
| 20260505231040 | 49 | 47 | 4.3 | 5.2 | 0.00 | 0.00 | 0.00 | 78 | 1011.4 |
| 20260505230559 | 49 | 310 | 1.7 | 2.6 | 0.00 | 0.00 | 0.00 | 78 | 1011.4 |
| 20260505230039 | 49 | 3 | 3.5 | 4.3 | 0.00 | 0.00 | 0.00 | 77 | 1011.4 |
| 20260505225539 | 49 | 36 | 2.6 | 4.3 | 0.00 | 0.00 | 0.00 | 77 | 1011.4 |
| 20260505225059 | 49 | 298 | 3.5 | 5.2 | 0.00 | 0.00 | 0.00 | 77 | 1011.5 |
| 20260505224539 | 49 | 301 | 3.5 | 4.3 | 0.00 | 0.00 | 0.00 | 77 | 1011.5 |
| 20260505224039 | 49 | 312 | 2.6 | 6.1 | 0.00 | 0.00 | 0.00 | 77 | 1011.4 |
| 20260505223539 | 49 | 6 | 2.6 | 7.8 | 0.00 | 0.00 | 0.00 | 77 | 1011.4 |
| 20260505223039 | 49 | 329 | 3.5 | 6.1 | 0.00 | 0.00 | 0.00 | 78 | 1011.4 |
| 20260505222539 | 49 | 31 | 1.7 | 6.1 | 0.00 | 0.00 | 0.00 | 78 | 1011.5 |
| 20260505222039 | 49 | 296 | 3.5 | 5.2 | 0.00 | 0.00 | 0.00 | 78 | 1011.5 |
| 20260505221539 | 49 | 319 | 2.6 | 3.5 | 0.00 | 0.00 | 0.00 | 78 | 1011.5 |
| 20260505221039 | 49 | 338 | 4.3 | 6.1 | 0.00 | 0.00 | 0.00 | 78 | 1011.6 |
| 20260505220539 | 49 | 354 | 2.6 | 4.3 | 0.00 | 0.00 | 0.00 | 77 | 1011.6 |
| 20260505220039 | 49 | 325 | 3.5 | 6.1 | 0.00 | 0.00 | 0.00 | 77 | 1011.7 |
| 20260505215539 | 50 | 348 | 4.3 | 6.1 | 0.00 | 0.00 | 0.00 | 77 | 1011.7 |
| 20260505215039 | 50 | 292 | 2.6 | 3.5 | 0.00 | 0.00 | 0.00 | 77 | 1011.7 |
| 20260505214539 | 50 | 326 | 1.7 | 6.1 | 0.00 | 0.00 | 0.00 | 76 | 1011.8 |
| 20260505214039 | 50 | 345 | 3.5 | 5.2 | 0.00 | 0.00 | 0.00 | 76 | 1011.8 |
| 20260505213541 | 50 | 337 | 2.6 | 4.3 | 0.00 | 0.00 | 0.00 | 76 | 1011.8 |
| 20260505213039 | 50 | 306 | 3.5 | 4.3 | 0.00 | 0.00 | 0.00 | 76 | 1011.8 |
| 20260505212539 | 50 | 314 | 2.6 | 4.3 | 0.00 | 0.00 | 0.00 | 75 | 1011.8 |
| 20260505212039 | 50 | 310 | 3.5 | 4.3 | 0.00 | 0.00 | 0.00 | 76 | 1011.9 |
| 20260505211539 | 50 | 291 | 3.5 | 4.3 | 0.00 | 0.00 | 0.00 | 75 | 1011.9 |
| 20260505211039 | 50 | 298 | 3.5 | 5.2 | 0.00 | 0.00 | 0.00 | 75 | 1011.8 |
| 20260505210540 | 51 | 337 | 5.2 | 7.0 | 0.00 | 0.00 | 0.00 | 75 | 1011.9 |
| 20260505210039 | 51 | 284 | 5.2 | 8.7 | 0.00 | 0.00 | 0.00 | 75 | 1011.9 |
| 20260505205539 | 51 | 310 | 5.2 | 7.0 | 0.00 | 0.00 | 0.00 | 75 | 1011.9 |
| 20260505205039 | 51 | 325 | 2.6 | 6.1 | 0.00 | 0.00 | 0.00 | 75 | 1012.0 |
| 20260505204539 | 51 | 305 | 4.3 | 6.1 | 0.00 | 0.00 | 0.00 | 74 | 1011.9 |
| 20260505204039 | 51 | 337 | 3.5 | 5.2 | 0.00 | 0.00 | 0.00 | 74 | 1012.0 |
| 20260505203539 | 51 | 69 | 0.9 | 7.0 | 0.00 | 0.00 | 0.00 | 74 | 1012.0 |
| 20260505203039 | 51 | 313 | 4.3 | 7.8 | 0.00 | 0.00 | 0.00 | 74 | 1012.0 |
| 20260505202539 | 51 | 350 | 4.3 | 8.7 | 0.00 | 0.00 | 0.00 | 74 | 1012.0 |
| 20260505202040 | 51 | 312 | 3.5 | 7.0 | 0.00 | 0.00 | 0.00 | 74 | 1011.9 |
| 20260505201539 | 51 | 300 | 2.6 | 7.0 | 0.00 | 0.00 | 0.00 | 74 | 1011.9 |
| 20260505201059 | 51 | 291 | 4.3 | 7.0 | 0.00 | 0.00 | 0.00 | 74 | 1011.8 |
| 20260505200539 | 51 | 344 | 1.7 | 5.2 | 0.00 | 0.00 | 0.00 | 74 | 1011.9 |
| 20260505200041 | 52 | 350 | 5.2 | 7.0 | 0.00 | 0.00 | 0.00 | 74 | 1011.9 |
| 20260505195559 | 52 | 306 | 3.5 | 4.3 | 0.00 | 0.00 | 0.00 | 74 | 1011.9 |
| 20260505195039 | 52 | 302 | 0.9 | 5.2 | 0.00 | 0.00 | 0.00 | 74 | 1011.8 |
| 20260505194539 | 52 | 298 | 3.5 | 7.0 | 0.00 | 0.00 | 0.00 | 74 | 1011.8 |
| 20260505194039 | 52 | 305 | 5.2 | 8.7 | 0.00 | 0.00 | 0.00 | 74 | 1011.7 |
| 20260505193540 | 52 | 314 | 6.1 | 8.7 | 0.00 | 0.00 | 0.00 | 74 | 1011.6 |
| 20260505193039 | 53 | 316 | 3.5 | 3.5 | 0.00 | 0.00 | 0.00 | 73 | 1011.6 |
| 20260505192539 | 53 | 352 | 4.3 | 7.8 | 0.00 | 0.00 | 0.00 | 73 | 1011.5 |
| 20260505192039 | 53 | 299 | 5.2 | 8.7 | 0.00 | 0.00 | 0.00 | 72 | 1011.4 |
| 20260505191539 | 53 | 316 | 2.6 | 5.2 | 0.00 | 0.00 | 0.00 | 73 | 1011.3 |
| 20260505191040 | 53 | 280 | 4.3 | 7.0 | 0.00 | 0.00 | 0.00 | 73 | 1011.3 |
| 20260505190539 | 53 | 299 | 4.3 | 7.0 | 0.00 | 0.00 | 0.00 | 72 | 1011.2 |
| 20260505190039 | 53 | 324 | 3.5 | 7.8 | 0.00 | 0.00 | 0.00 | 72 | 1011.2 |
| 20260505185539 | 54 | 338 | 5.2 | 10.4 | 0.00 | 0.00 | 0.00 | 72 | 1011.1 |
| 20260505185040 | 54 | 294 | 3.5 | 9.6 | 0.00 | 0.00 | 0.00 | 71 | 1011.1 |
| 20260505184559 | 54 | 318 | 2.6 | 4.3 | 0.00 | 0.00 | 0.00 | 71 | 1011.1 |
| 20260505184119 | 54 | 309 | 6.1 | 8.7 | 0.00 | 0.00 | 0.00 | 70 | 1011.1 |
| 20260505183539 | 55 | 289 | 5.2 | 9.6 | 0.00 | 0.00 | 0.00 | 70 | 1011.1 |
| 20260505183040 | 55 | 355 | 4.3 | 9.6 | 0.00 | 0.00 | 0.00 | 69 | 1010.9 |
| 20260505182542 | 55 | 300 | 4.3 | 4.3 | 0.00 | 0.00 | 0.00 | 69 | 1010.9 |
| 20260505182039 | 55 | 302 | 6.1 | 8.7 | 0.00 | 0.00 | 0.00 | 69 | 1010.8 |
| 20260505181539 | 55 | 319 | 3.5 | 7.0 | 0.00 | 0.00 | 0.00 | 68 | 1010.9 |
| 20260505181039 | 55 | 276 | 4.3 | 6.1 | 0.00 | 0.00 | 0.00 | 68 | 1010.9 |
| 20260505180539 | 56 | 82 | 4.3 | 7.8 | 0.00 | 0.00 | 0.00 | 67 | 1010.9 |
| 20260505180039 | 56 | 309 | 3.5 | 4.3 | 0.00 | 0.00 | 0.00 | 67 | 1010.9 |
| 20260505175539 | 56 | 289 | 2.6 | 9.6 | 0.00 | 0.00 | 0.00 | 67 | 1010.9 |
| 20260505175040 | 57 | 348 | 5.2 | 11.3 | 0.00 | 0.00 | 0.00 | 65 | 1010.9 |
| 20260505174539 | 57 | 24 | 5.2 | 7.0 | 0.00 | 0.00 | 0.00 | 64 | 1010.9 |
| 20260505174039 | 57 | 309 | 3.5 | 8.7 | 0.00 | 0.00 | 0.00 | 64 | 1011.0 |
| 20260505173539 | 57 | 129 | 4.3 | 11.3 | 0.00 | 0.00 | 0.00 | 64 | 1010.9 |
| 20260505173040 | 57 | 311 | 6.1 | 9.6 | 0.00 | 0.00 | 0.00 | 63 | 1011.0 |
| 20260505172540 | 58 | 303 | 1.7 | 4.3 | 0.00 | 0.00 | 0.00 | 63 | 1010.9 |
| 20260505172040 | 57 | 316 | 3.5 | 7.8 | 0.00 | 0.00 | 0.00 | 63 | 1010.9 |
| 20260505171600 | 57 | 303 | 4.3 | 7.8 | 0.00 | 0.00 | 0.00 | 63 | 1010.9 |
| 20260505171039 | 57 | 301 | 2.6 | 5.2 | 0.00 | 0.00 | 0.00 | 63 | 1010.9 |
| 20260505170540 | 57 | 290 | 4.3 | 7.0 | 0.00 | 0.00 | 0.00 | 63 | 1010.9 |
| 20260505170039 | 57 | 5 | 1.7 | 7.8 | 0.00 | 0.00 | 0.00 | 63 | 1011.0 |
| 20260505165540 | 58 | 341 | 7.0 | 10.4 | 0.00 | 0.00 | 0.00 | 62 | 1011.0 |
| 20260505165039 | 58 | 270 | 2.6 | 5.2 | 0.00 | 0.00 | 0.00 | 62 | 1011.1 |
| 20260505164600 | 58 | 294 | 7.8 | 9.6 | 0.00 | 0.00 | 0.00 | 61 | 1011.1 |
| 20260505164039 | 59 | 275 | 4.3 | 7.8 | 0.00 | 0.00 | 0.00 | 60 | 1011.1 |
| 20260505163540 | 59 | 295 | 2.6 | 5.2 | 0.00 | 0.00 | 0.00 | 62 | 1011.0 |
| 20260505163040 | 58 | 252 | 1.7 | 6.1 | 0.00 | 0.00 | 0.00 | 62 | 1011.0 |
| 20260505162540 | 59 | 309 | 4.3 | 7.8 | 0.00 | 0.00 | 0.00 | 61 | 1011.1 |
| 20260505162059 | 60 | 287 | 2.6 | 6.1 | 0.00 | 0.00 | 0.00 | 60 | 1011.0 |
| 20260505161559 | 59 | 312 | 4.3 | 7.0 | 0.00 | 0.00 | 0.00 | 60 | 1011.1 |
| 20260505161039 | 59 | 329 | 4.3 | 7.8 | 0.00 | 0.00 | 0.00 | 59 | 1011.2 |
| 20260505160540 | 61 | 253 | 0.9 | 3.5 | 0.00 | 0.00 | 0.00 | 57 | 1011.1 |
| 20260505153040 | 60 | 300 | 4.3 | 9.6 | 0.00 | 0.00 | 0.00 | 58 | 1011.1 |
| 20260505152540 | 60 | 290 | 2.6 | 4.3 | 0.00 | 0.00 | 0.00 | 58 | 1011.1 |
| 20260505152040 | 61 | 265 | 3.5 | 4.3 | 0.00 | 0.00 | 0.00 | 58 | 1011.0 |
| 20260505151559 | 61 | 287 | 2.6 | 5.2 | 0.00 | 0.00 | 0.00 | 57 | 1011.2 |
| 20260505151039 | 61 | 153 | 1.7 | 3.5 | 0.00 | 0.00 | 0.00 | 57 | 1011.2 |
| 20260505150540 | 60 | 318 | 2.6 | 6.1 | 0.00 | 0.00 | 0.00 | 58 | 1011.2 |
| 20260505140340 | 60 | 297 | 2.6 | 5.2 | 0.00 | 0.00 | 0.00 | 59 | 1011.5 |
| 20260505130140 | 60 | 272 | 4.3 | 8.7 | 0.00 | 0.00 | 0.00 | 54 | 1011.8 |
| 20260505124640 | 61 | 293 | 1.7 | 4.3 | 0.00 | 0.00 | 0.00 | 55 | 1011.8 |
| 20260505124140 | 60 | 152 | 1.7 | 6.1 | 0.00 | 0.00 | 0.00 | 56 | 1011.9 |
| 20260505123640 | 60 | 284 | 4.3 | 9.6 | 0.00 | 0.00 | 0.00 | 55 | 1011.9 |
| 20260505123110 | 62 | 171 | 3.5 | 7.0 | 0.00 | 0.00 | 0.00 | 52 | 1012.0 |
| 20260505122610 | 61 | 145 | 2.6 | 4.3 | 0.00 | 0.00 | 0.00 | 55 | 1012.0 |
| 20260505122010 | 62 | 289 | 2.6 | 4.3 | 0.00 | 0.00 | 0.00 | 53 | 1012.0 |
| 20260505121440 | 61 | 275 | 3.5 | 6.1 | 0.00 | 0.00 | 0.00 | 55 | 1011.9 |
| 20260505121000 | 61 | 330 | 4.3 | 8.7 | 0.00 | 0.00 | 0.00 | 54 | 1011.9 |
| 20260505120440 | 61 | 281 | 2.6 | 7.8 | 0.00 | 0.00 | 0.00 | 54 | 1011.8 |
| 20260505115941 | 60 | 303 | 7.0 | 8.7 | 0.00 | 0.00 | 0.00 | 57 | 1011.9 |
| 20260505115500 | 60 | 315 | 7.0 | 8.7 | 0.00 | 0.00 | 0.00 | 57 | 1011.9 |
| 20260505114940 | 60 | 230 | 1.7 | 4.3 | 0.00 | 0.00 | 0.00 | 58 | 1012.0 |
| 20260505114440 | 59 | 204 | 3.5 | 8.7 | 0.00 | 0.00 | 0.00 | 57 | 1012.0 |
| 20260505113940 | 60 | 286 | 5.2 | 6.1 | 0.00 | 0.00 | 0.00 | 57 | 1012.1 |
| 20260505113440 | 59 | 249 | 5.2 | 12.2 | 0.00 | 0.00 | 0.00 | 58 | 1012.1 |
| 20260505112910 | 60 | 295 | 8.7 | 8.7 | 0.00 | 0.00 | 0.00 | 55 | 1012.0 |
| 20260505112310 | 60 | 76 | 4.3 | 5.2 | 0.00 | 0.00 | 0.00 | 59 | 1012.2 |
| 20260505111740 | 59 | 282 | 2.6 | 4.3 | 0.00 | 0.00 | 0.00 | 59 | 1012.4 |
| 20260505111240 | 60 | 312 | 4.3 | 6.1 | 0.00 | 0.00 | 0.00 | 57 | 1012.3 |
| 20260505110740 | 58 | 303 | 6.1 | 8.7 | 0.00 | 0.00 | 0.00 | 58 | 1012.3 |
| 20260505110240 | 60 | 352 | 3.5 | 5.2 | 0.00 | 0.00 | 0.00 | 55 | 1012.5 |
| 20260505102200 | 59 | 227 | 6.1 | 7.0 | 0.00 | 0.00 | 0.00 | 62 | 1012.7 |
| 20260505101700 | 59 | 83 | 0.9 | 2.6 | 0.00 | 0.00 | 0.00 | 62 | 1012.7 |
| 20260505101140 | 57 | 331 | 4.3 | 7.0 | 0.00 | 0.00 | 0.00 | 63 | 1012.7 |
| 20260505100640 | 59 | 296 | 1.7 | 7.8 | 0.00 | 0.00 | 0.00 | 61 | 1012.7 |
| 20260505100140 | 60 | 307 | 3.5 | 6.1 | 0.00 | 0.00 | 0.00 | 59 | 1012.8 |
| 20260505095640 | 59 | 243 | 1.7 | 5.2 | 0.00 | 0.00 | 0.00 | 61 | 1012.8 |
| 20260505095140 | 59 | 210 | 1.7 | 8.7 | 0.00 | 0.00 | 0.00 | 59 | 1012.9 |
| 20260505094700 | 60 | 318 | 1.7 | 1.7 | 0.00 | 0.00 | 0.00 | 59 | 1012.8 |
| 20260505094140 | 58 | 335 | 1.7 | 6.1 | 0.00 | 0.00 | 0.00 | 61 | 1012.9 |
| 20260505093641 | 59 | 79 | 1.7 | 3.5 | 0.00 | 0.00 | 0.00 | 62 | 1013.0 |
| 20260505093140 | 58 | 166 | 4.3 | 5.2 | 0.00 | 0.00 | 0.00 | 62 | 1012.9 |
| 20260505092700 | 57 | 263 | 3.5 | 5.2 | 0.00 | 0.00 | 0.00 | 64 | 1012.9 |
| 20260505092200 | 58 | 352 | 2.6 | 4.3 | 0.00 | 0.00 | 0.00 | 61 | 1012.9 |
| 20260505091610 | 59 | 238 | 3.5 | 7.8 | 0.00 | 0.00 | 0.00 | 62 | 1013.0 |
| 20260505091040 | 58 | 308 | 3.5 | 6.1 | 0.00 | 0.00 | 0.00 | 64 | 1013.0 |
| 20260505090600 | 58 | 323 | 1.7 | 6.1 | 0.00 | 0.00 | 0.00 | 63 | 1013.0 |
| 20260505090040 | 58 | 253 | 1.7 | 4.3 | 0.00 | 0.00 | 0.00 | 65 | 1013.0 |
| 20260505085540 | 58 | 303 | 3.5 | 6.1 | 0.00 | 0.00 | 0.00 | 65 | 1012.9 |
| 20260505085100 | 57 | 301 | 6.1 | 12.2 | 0.00 | 0.00 | 0.00 | 65 | 1013.0 |
| 20260505084540 | 58 | 283 | 2.6 | 6.1 | 0.00 | 0.00 | 0.00 | 65 | 1012.9 |
| 20260505084040 | 58 | 230 | 4.3 | 7.8 | 0.00 | 0.00 | 0.00 | 66 | 1012.9 |
| 20260505083600 | 57 | 293 | 4.3 | 7.0 | 0.00 | 0.00 | 0.00 | 68 | 1012.9 |
| 20260505083040 | 57 | 114 | 1.7 | 6.1 | 0.00 | 0.00 | 0.00 | 68 | 1012.9 |
| 20260505082540 | 57 | 289 | 1.7 | 3.5 | 0.00 | 0.00 | 0.00 | 71 | 1012.9 |
| 20260505082101 | 54 | 326 | 3.5 | 4.3 | 0.00 | 0.00 | 0.00 | 75 | 1012.9 |
| 20260505081540 | 53 | 312 | 5.2 | 7.8 | 0.00 | 0.00 | 0.00 | 75 | 1012.9 |
| 20260505081040 | 53 | 296 | 3.5 | 6.1 | 0.00 | 0.00 | 0.00 | 76 | 1012.9 |
| 20260505080600 | 53 | 321 | 6.1 | 8.7 | 0.00 | 0.00 | 0.00 | 76 | 1012.9 |
| 20260505080041 | 53 | 296 | 2.6 | 6.1 | 0.00 | 0.00 | 0.00 | 77 | 1012.7 |
| 20260505075540 | 53 | 92 | 2.6 | 7.8 | 0.00 | 0.00 | 0.00 | 77 | 1012.7 |
| 20260505075040 | 53 | 304 | 5.2 | 8.7 | 0.00 | 0.00 | 0.00 | 78 | 1012.7 |
| 20260505074540 | 53 | 291 | 7.0 | 9.6 | 0.00 | 0.00 | 0.00 | 78 | 1012.8 |
| 20260505074041 | 53 | 16 | 3.5 | 7.0 | 0.00 | 0.00 | 0.00 | 79 | 1012.9 |
| 20260505073541 | 52 | 306 | 3.5 | 6.1 | 0.00 | 0.00 | 0.00 | 80 | 1013.0 |
| 20260505073040 | 53 | 313 | 4.3 | 5.2 | 0.00 | 0.00 | 0.00 | 81 | 1013.0 |
| 20260505072540 | 52 | 226 | 0.9 | 5.2 | 0.00 | 0.00 | 0.00 | 82 | 1013.0 |
| 20260505072040 | 52 | 304 | 4.3 | 5.2 | 0.00 | 0.00 | 0.00 | 83 | 1013.1 |
| 20260505071540 | 52 | 317 | 1.7 | 4.3 | 0.00 | 0.00 | 0.00 | 83 | 1013.0 |
| 20260505071041 | 52 | 305 | 4.3 | 7.8 | 0.00 | 0.00 | 0.00 | 83 | 1013.1 |
| 20260505070540 | 52 | 292 | 3.5 | 8.7 | 0.00 | 0.00 | 0.00 | 84 | 1013.0 |
| 20260505070100 | 52 | 323 | 1.7 | 8.7 | 0.00 | 0.00 | 0.00 | 84 | 1013.1 |
| 20260505065540 | 52 | 300 | 4.3 | 7.0 | 0.00 | 0.00 | 0.00 | 84 | 1013.2 |
| 20260505065041 | 51 | 276 | 3.5 | 6.1 | 0.00 | 0.00 | 0.00 | 84 | 1013.3 |
| 20260505064540 | 52 | 336 | 3.5 | 5.2 | 0.00 | 0.00 | 0.00 | 85 | 1013.2 |
| 20260505064040 | 51 | 309 | 2.6 | 4.3 | 0.00 | 0.00 | 0.00 | 85 | 1013.3 |
| 20260505063540 | 51 | 318 | 3.5 | 6.1 | 0.00 | 0.00 | 0.00 | 85 | 1013.3 |
| 20260505063040 | 51 | 285 | 1.7 | 2.6 | 0.00 | 0.00 | 0.00 | 85 | 1013.4 |
| 20260505062540 | 51 | 295 | 1.7 | 2.6 | 0.00 | 0.00 | 0.00 | 86 | 1013.5 |
| 20260505062040 | 51 | 291 | 2.6 | 6.1 | 0.00 | 0.00 | 0.00 | 86 | 1013.5 |
| 20260505061541 | 51 | 352 | 3.5 | 8.7 | 0.00 | 0.00 | 0.00 | 86 | 1013.5 |
| 20260505061040 | 51 | 341 | 4.3 | 8.7 | 0.00 | 0.00 | 0.00 | 86 | 1013.5 |
| 20260505060542 | 51 | 317 | 4.3 | 5.2 | 0.00 | 0.00 | 0.00 | 86 | 1013.4 |
| 20260505060040 | 51 | 311 | 4.3 | 6.1 | 0.00 | 0.00 | 0.00 | 86 | 1013.4 |
| 20260505055540 | 51 | 9 | 2.6 | 6.1 | 0.00 | 0.00 | 0.00 | 86 | 1013.4 |
| 20260505055040 | 51 | 315 | 3.5 | 8.7 | 0.00 | 0.00 | 0.00 | 86 | 1013.5 |
| 20260505054540 | 51 | 336 | 4.3 | 8.7 | 0.00 | 0.00 | 0.00 | 86 | 1013.5 |
| 20260505054041 | 51 | 305 | 2.6 | 4.3 | 0.00 | 0.00 | 0.00 | 86 | 1013.5 |
| 20260505053600 | 51 | 11 | 3.5 | 5.2 | 0.00 | 0.00 | 0.00 | 86 | 1013.4 |
| 20260505053040 | 51 | 292 | 1.7 | 4.3 | 0.00 | 0.00 | 0.00 | 86 | 1013.4 |
| 20260505052541 | 51 | 323 | 1.7 | 5.2 | 0.00 | 0.00 | 0.00 | 86 | 1013.3 |
| 20260505052040 | 51 | 323 | 4.3 | 6.1 | 0.00 | 0.00 | 0.00 | 86 | 1013.3 |
| 20260505051540 | 51 | 325 | 2.6 | 4.3 | 0.00 | 0.00 | 0.00 | 86 | 1013.2 |
| 20260505051040 | 51 | 309 | 2.6 | 5.2 | 0.00 | 0.00 | 0.00 | 86 | 1013.2 |
| 20260505050540 | 51 | 303 | 5.2 | 7.8 | 0.00 | 0.00 | 0.00 | 86 | 1013.2 |